New Richmond, WI

3:37 PM CDT on May 24, 2017 (GMT -0500)
New Richmond Municipal

Weather History for KRNH - March, 2014

Change the Weather History Date:

Sunday, March 30, 2014

  Actual Average (KSTP) Record (KSTP)
Temperature  
Mean Temperature 42 °F -  
Max Temperature 50 °F 46 °F 72 °F (1999)
Min Temperature 33 °F 29 °F 23 °F (2011)
Degree Days  
Heating Degree Days 24    
Moisture  
Dew Point 32 °F    
Average Humidity 69    
Maximum Humidity 79    
Minimum Humidity 57    
Precipitation  
Precipitation 0.00 in - - ()
Sea Level Pressure  
Sea Level Pressure 29.91 in    
Wind  
Wind Speed 10 mph (SSE)    
Max Wind Speed 22 mph    
Max Gust Speed 29 mph    
Visibility 10 miles    
Events      
Averages and records for this station are not official NWS values.
T = Trace of Precipitation, MM = Missing Value Source: NWS Daily Summary

Daily Weather History Graph

Daily Weather History Graph

Search for Another Location

Airport or City:

Trip Planner

Search our weather history database for the weather conditions in past years. The results will help you decide how hot, cold, wet, or windy it might be!

Date:

Astronomy

Mar. 30, 2014 Rise Set
Actual Time 6:54 AM CDT 7:35 PM CDT
Civil Twilight 6:24 AM CDT 8:05 PM CDT
Nautical Twilight 5:49 AM CDT 8:40 PM CDT
Astronomical Twilight 5:12 AM CDT 9:17 PM CDT
Moon 6:40 AM CDT (3/30) 7:50 PM CDT (3/30)
Length of Visible Light 13h 40m
Length of Day
12h 41m
Waning Crescent, 0% of the Moon is Illuminated
Mar 30
Waning Crescent
Mar 30
New
Apr 7
First Quarter
Apr 15
Full
Apr 22
Last Quarter

Hourly Weather History & Observations

Time (CDT) Temp. Windchill Dew Point Humidity Pressure Visibility Wind Dir Wind Speed Gust Speed Precip Events Conditions
12:15 AM 33.1 °F 25.5 °F 25.5 °F 74% 30.10 in 10.0 mi SSE 9.2 mph - N/A   Clear
12:35 AM 33.6 °F 25.6 °F 25.7 °F 73% 30.09 in 10.0 mi SSE 10.4 mph - N/A   Clear
12:55 AM 33.4 °F 26.6 °F 25.7 °F 73% 30.07 in 10.0 mi SSE 8.1 mph - N/A   Clear
1:15 AM 33.8 °F 25.8 °F 26.4 °F 74% 30.05 in 10.0 mi SSE 10.4 mph - N/A   Clear
1:35 AM 34.7 °F 26.4 °F 27.0 °F 73% 30.05 in 10.0 mi SSE 11.5 mph - N/A   Clear
1:55 AM 34.7 °F 26.4 °F 27.5 °F 75% 30.04 in 10.0 mi SSE 11.5 mph - N/A   Clear
2:15 AM 34.7 °F 26.4 °F 28.0 °F 77% 30.03 in 10.0 mi SSE 11.5 mph - N/A   Clear
2:35 AM 34.7 °F 26.4 °F 28.4 °F 78% 30.03 in 10.0 mi SSE 11.5 mph - N/A   Clear
2:55 AM 34.7 °F 26.4 °F 28.4 °F 78% 30.01 in 10.0 mi SSE 11.5 mph - N/A   Clear
3:15 AM 34.9 °F 25.7 °F 28.8 °F 78% 30.00 in 10.0 mi SSE 13.8 mph 19.6 mph N/A   Clear
3:35 AM 35.2 °F 26.6 °F 29.1 °F 78% 30.00 in 10.0 mi SSE 12.7 mph - N/A   Scattered Clouds
3:55 AM 35.6 °F 27.5 °F 29.3 °F 78% 29.99 in 10.0 mi SSE 11.5 mph 17.3 mph N/A   Clear
4:15 AM 36.0 °F 27.5 °F 29.7 °F 78% 29.98 in 10.0 mi SSE 12.7 mph - N/A   Clear
4:35 AM 37.0 °F 28.9 °F 30.2 °F 76% 29.97 in 10.0 mi SSE 12.7 mph 18.4 mph N/A   Clear
4:55 AM 37.4 °F 28.5 °F 30.2 °F 75% 29.95 in 10.0 mi SSE 15.0 mph - N/A   Clear
5:15 AM 37.8 °F 28.6 °F 30.2 °F 74% 29.93 in 10.0 mi SSE 16.1 mph 20.7 mph N/A   Clear
5:35 AM 37.8 °F 28.3 °F 30.2 °F 74% 29.93 in 10.0 mi SSE 17.3 mph 23.0 mph N/A   Clear
5:55 AM 37.9 °F 27.3 °F 30.2 °F 74% 29.92 in 10.0 mi South 21.9 mph 28.8 mph N/A   Clear
6:15 AM 37.8 °F 28.0 °F 30.2 °F 74% 29.92 in 10.0 mi South 18.4 mph 26.5 mph N/A   Clear
6:35 AM 37.4 °F 28.5 °F 30.2 °F 75% 29.92 in 10.0 mi South 15.0 mph 23.0 mph N/A   Clear
6:55 AM 37.0 °F 28.1 °F 30.4 °F 77% 29.93 in 10.0 mi South 15.0 mph 21.9 mph N/A   Clear
7:15 AM 36.7 °F 28.9 °F 30.4 °F 78% 29.94 in 10.0 mi South 11.5 mph - N/A   Clear
7:35 AM 36.7 °F 29.4 °F 30.6 °F 78% 29.94 in 10.0 mi South 10.4 mph - N/A   Clear
7:55 AM 36.9 °F 29.6 °F 30.7 °F 79% 29.94 in 10.0 mi SSE 10.4 mph - N/A   Clear
8:15 AM 37.8 °F 30.7 °F 30.7 °F 76% 29.93 in 10.0 mi SSE 10.4 mph - N/A   Clear
8:35 AM 38.3 °F 30.5 °F 30.9 °F 75% 29.92 in 10.0 mi South 12.7 mph 20.7 mph N/A   Clear
8:55 AM 38.7 °F 30.5 °F 30.9 °F 74% 29.91 in 10.0 mi South 13.8 mph - N/A   Clear
9:15 AM 39.0 °F 31.0 °F 30.9 °F 73% 29.91 in 10.0 mi South 13.8 mph - N/A   Clear
9:35 AM 39.0 °F 31.4 °F 31.1 °F 73% 29.91 in 10.0 mi South 12.7 mph - N/A   Clear
9:55 AM 39.9 °F 32.9 °F 31.1 °F 71% 29.90 in 10.0 mi South 11.5 mph 16.1 mph N/A   Clear
10:15 AM 41.5 °F 34.6 °F 31.1 °F 66% 29.91 in 10.0 mi South 12.7 mph 16.1 mph N/A   Clear
10:35 AM 43.0 °F 34.8 °F 31.1 °F 63% 29.90 in 10.0 mi South 18.4 mph 23.0 mph N/A   Clear
10:55 AM 43.7 °F 36.9 °F 31.1 °F 61% 29.90 in 10.0 mi South 13.8 mph 20.7 mph N/A   Clear
11:15 AM 44.1 °F 37.4 °F 31.5 °F 61% 29.90 in 10.0 mi South 13.8 mph 19.6 mph N/A   Clear
11:35 AM 44.8 °F 39.4 °F 31.8 °F 60% 29.90 in 10.0 mi South 10.4 mph - N/A   Clear
11:55 AM 45.5 °F 39.6 °F 31.8 °F 59% 29.90 in 10.0 mi South 12.7 mph - N/A   Clear
12:15 PM 45.9 °F 41.7 °F 32.0 °F 58% 29.90 in 10.0 mi South 8.1 mph - N/A   Clear
12:35 PM 46.4 °F 41.9 °F 32.0 °F 57% 29.90 in 10.0 mi SSW 9.2 mph - N/A   Clear
12:55 PM 46.6 °F - 32.0 °F 57% 29.89 in 10.0 mi South 11.5 mph - N/A   Clear
1:15 PM 47.1 °F - 32.5 °F 57% 29.90 in 10.0 mi SSW 9.2 mph - N/A   Clear
1:35 PM 47.5 °F - 32.9 °F 57% 29.89 in 10.0 mi South 11.5 mph - N/A   Clear
1:55 PM 47.3 °F - 33.1 °F 58% 29.89 in 10.0 mi South 8.1 mph - N/A   Clear
2:15 PM 47.8 °F - 33.4 °F 57% 29.89 in 10.0 mi South 6.9 mph - N/A   Clear
2:35 PM 48.2 °F - 34.0 °F 58% 29.88 in 10.0 mi South 5.8 mph - N/A   Clear
2:55 PM 48.2 °F - 34.2 °F 58% 29.88 in 10.0 mi SSE 8.1 mph - N/A   Clear
3:15 PM 49.3 °F - 34.7 °F 57% 29.88 in 10.0 mi SSE 6.9 mph - N/A   Clear
3:35 PM 49.1 °F - 35.1 °F 58% 29.87 in 10.0 mi SSE 8.1 mph - N/A   Clear
3:55 PM 50.0 °F - 35.6 °F 58% 29.87 in 10.0 mi SSE 6.9 mph - N/A   Clear
4:15 PM 48.9 °F - 35.6 °F 60% 29.86 in 10.0 mi ESE 5.8 mph - N/A   Clear
4:35 PM 48.9 °F - 36.1 °F 61% 29.86 in 10.0 mi SE 6.9 mph - N/A   Clear
4:55 PM 49.6 °F - 36.5 °F 61% 29.86 in 10.0 mi ESE 5.8 mph - N/A   Clear
5:15 PM 49.1 °F - 36.5 °F 62% 29.85 in 10.0 mi ESE 4.6 mph - N/A   Mostly Cloudy
5:35 PM 49.5 °F - 36.7 °F 61% 29.85 in 10.0 mi ESE 3.5 mph - N/A   Scattered Clouds
5:55 PM 48.4 °F - 36.5 °F 64% 29.85 in 10.0 mi East 4.6 mph - N/A   Clear
6:15 PM 47.3 °F - 36.5 °F 66% 29.85 in 10.0 mi ESE 4.6 mph - N/A   Mostly Cloudy
6:35 PM 46.4 °F 44.3 °F 36.0 °F 67% 29.84 in 7.0 mi East 4.6 mph - N/A   Overcast
6:55 PM 46.4 °F 44.3 °F 35.8 °F 67% 29.84 in 10.0 mi ESE 4.6 mph - N/A   Scattered Clouds
7:15 PM 45.1 °F 42.8 °F 35.6 °F 69% 29.84 in 10.0 mi East 4.6 mph - N/A   Clear
7:35 PM 44.8 °F 41.6 °F 35.6 °F 70% 29.83 in 10.0 mi ESE 5.8 mph - N/A   Clear
7:55 PM 44.4 °F 42.0 °F 35.4 °F 71% 29.83 in 10.0 mi ESE 4.6 mph - N/A   Clear
8:15 PM 43.7 °F 42.1 °F 35.4 °F 73% 29.84 in 10.0 mi East 3.5 mph - N/A   Clear
8:35 PM 44.1 °F 41.5 °F 35.6 °F 72% 29.84 in 10.0 mi East 4.6 mph - N/A   Clear
8:55 PM 43.7 °F 39.7 °F 35.1 °F 72% 29.84 in 10.0 mi East 6.9 mph - N/A   Clear
9:15 PM 43.9 °F 39.9 °F 35.2 °F 72% 29.83 in 10.0 mi ESE 6.9 mph - N/A   Clear
9:35 PM 45.1 °F 42.0 °F 35.6 °F 69% 29.83 in 10.0 mi ESE 5.8 mph - N/A   Clear
9:55 PM 44.6 °F 41.4 °F 35.2 °F 70% 29.83 in 10.0 mi ESE 5.8 mph - N/A   Clear
10:15 PM 45.1 °F 40.8 °F 35.2 °F 68% 29.82 in 10.0 mi ESE 8.1 mph - N/A   Clear
10:35 PM 45.0 °F 41.8 °F 35.1 °F 68% 29.82 in 10.0 mi ESE 5.8 mph - N/A   Clear
10:55 PM 45.0 °F 40.6 °F 34.9 °F 68% 29.82 in 10.0 mi ESE 8.1 mph - N/A   Clear
11:15 PM 44.6 °F 40.7 °F 34.7 °F 68% 29.82 in 10.0 mi ESE 6.9 mph - N/A   Clear
11:35 PM 44.1 °F 40.1 °F 34.2 °F 68% 29.82 in 10.0 mi ESE 6.9 mph - N/A   Clear
11:55 PM 44.1 °F 39.0 °F 34.0 °F 68% 29.82 in 10.0 mi ESE 9.2 mph - N/A   Clear